Time,TemperatureF,DewpointF,PressureIn,WindDirection,WindDirectionDegrees,WindSpeedMPH,WindSpeedGustMPH,Humidity,HourlyPrecipIn,Conditions,Clouds,dailyrainin,SoftwareType,DateUTC
2013-06-18 00:02:00,70.0,69.0,29.92,North,5,0.0,0.0,97,0.00,,,1.37,,2013-06-18 05:02:00,
2013-06-18 00:12:00,70.0,69.0,29.92,North,5,0.0,0.0,97,0.00,,,1.37,,2013-06-18 05:12:00,
2013-06-18 00:22:00,70.0,69.0,29.92,North,5,0.0,0.0,97,0.00,,,1.37,,2013-06-18 05:22:00,
2013-06-18 00:34:00,70.0,69.0,29.92,North,5,0.0,1.0,97,0.02,,,1.39,,2013-06-18 05:34:00,
2013-06-18 00:43:00,70.0,69.0,29.92,North,5,0.0,1.0,97,0.02,,,1.39,,2013-06-18 05:43:00,
2013-06-18 00:53:00,70.0,69.0,29.92,North,5,0.0,1.0,97,0.02,,,1.39,,2013-06-18 05:53:00,
2013-06-18 01:02:00,70.0,69.0,29.92,North,5,0.0,1.0,97,0.02,,,1.39,,2013-06-18 06:02:00,
2013-06-18 01:11:00,70.0,69.0,29.92,NW,315,0.0,0.0,97,0.02,,,1.39,,2013-06-18 06:11:00,
2013-06-18 01:23:00,70.0,69.0,29.92,NW,315,0.0,0.0,97,0.02,,,1.39,,2013-06-18 06:23:00,
2013-06-18 01:32:00,70.0,69.0,29.92,NW,315,0.0,0.0,97,0.00,,,1.39,,2013-06-18 06:32:00,
2013-06-18 01:43:00,70.0,69.0,29.92,NW,315,0.0,0.0,97,0.00,,,1.39,,2013-06-18 06:43:00,
2013-06-18 01:52:00,70.0,69.0,29.92,NW,315,0.0,0.0,97,0.01,,,1.40,,2013-06-18 06:52:00,
2013-06-18 02:02:00,70.0,69.0,29.92,NW,315,0.0,0.0,97,0.01,,,1.40,,2013-06-18 07:02:00,
2013-06-18 02:12:00,70.0,69.0,29.92,NW,315,0.0,0.0,97,0.01,,,1.40,,2013-06-18 07:12:00,
2013-06-18 02:22:00,70.0,69.0,29.92,WNW,286,0.0,2.0,97,0.01,,,1.40,,2013-06-18 07:22:00,
2013-06-18 02:33:00,70.0,69.0,29.92,WNW,286,0.0,1.0,97,0.01,,,1.40,,2013-06-18 07:33:00,
2013-06-18 02:43:00,70.0,69.0,29.91,WNW,286,2.0,2.0,97,0.01,,,1.40,,2013-06-18 07:43:00,
2013-06-18 02:53:00,70.0,69.0,29.92,West,281,0.0,3.0,97,0.00,,,1.40,,2013-06-18 07:53:00,
2013-06-18 03:01:00,70.0,69.0,29.92,West,281,0.0,3.0,97,0.00,,,1.40,,2013-06-18 08:01:00,
2013-06-18 03:11:00,70.0,69.0,29.92,West,281,0.0,3.0,97,0.00,,,1.40,,2013-06-18 08:11:00,
2013-06-18 03:23:00,69.0,68.0,29.91,WSW,246,0.0,2.0,97,0.00,,,1.40,,2013-06-18 08:23:00,
2013-06-18 03:33:00,69.0,68.0,29.90,WSW,246,0.0,2.0,97,0.00,,,1.40,,2013-06-18 08:33:00,
2013-06-18 03:43:00,69.0,68.0,29.90,WSW,246,0.0,2.0,97,0.00,,,1.40,,2013-06-18 08:43:00,
2013-06-18 03:52:00,69.0,68.0,29.90,WSW,246,0.0,1.0,97,0.00,,,1.40,,2013-06-18 08:52:00,
2013-06-18 04:02:00,69.0,68.0,29.90,WSW,246,0.0,1.0,97,0.00,,,1.40,,2013-06-18 09:02:00,
2013-06-18 04:12:00,69.0,68.0,29.90,WSW,246,0.0,0.0,97,0.00,,,1.40,,2013-06-18 09:12:00,
2013-06-18 04:22:00,69.0,68.0,29.90,SW,219,2.0,5.0,98,0.00,,,1.40,,2013-06-18 09:22:00,
2013-06-18 04:34:00,69.0,68.0,29.90,WNW,303,2.0,4.0,98,0.00,,,1.40,,2013-06-18 09:34:00,
2013-06-18 04:43:00,69.0,68.0,29.90,WNW,303,2.0,4.0,98,0.00,,,1.40,,2013-06-18 09:43:00,
2013-06-18 04:53:00,69.0,68.0,29.91,WNW,301,0.0,4.0,98,0.00,,,1.40,,2013-06-18 09:53:00,
2013-06-18 05:02:00,69.0,68.0,29.91,WNW,301,4.0,8.0,98,0.00,,,1.40,,2013-06-18 10:02:00,
2013-06-18 05:11:00,69.0,68.0,29.91,WNW,301,4.0,8.0,98,0.00,,,1.40,,2013-06-18 10:11:00,
2013-06-18 05:22:00,69.0,68.0,29.92,NNW,328,10.0,10.0,98,0.00,,,1.40,,2013-06-18 10:22:00,
2013-06-18 05:33:00,69.0,68.0,29.92,NNW,328,10.0,10.0,98,0.00,,,1.40,,2013-06-18 10:33:00,
2013-06-18 05:43:00,69.0,68.0,29.92,NNW,328,10.0,10.0,98,0.00,,,1.40,,2013-06-18 10:43:00,
2013-06-18 05:53:00,69.0,68.0,29.92,NNW,328,10.0,10.0,98,0.00,,,1.40,,2013-06-18 10:53:00,
2013-06-18 06:02:00,68.0,67.0,29.92,NW,323,0.0,6.0,98,0.00,,,1.40,,2013-06-18 11:02:00,
2013-06-18 06:11:00,68.0,67.0,29.93,NW,311,0.0,5.0,98,0.00,,,1.40,,2013-06-18 11:11:00,
2013-06-18 06:22:00,68.0,67.0,29.94,NW,311,0.0,4.0,98,0.00,,,1.40,,2013-06-18 11:22:00,
2013-06-18 06:32:00,68.0,67.0,29.95,NW,324,0.0,5.0,98,0.00,,,1.40,,2013-06-18 11:32:00,
2013-06-18 06:43:00,68.0,67.0,29.95,NW,324,0.0,5.0,98,0.00,,,1.40,,2013-06-18 11:43:00,
2013-06-18 06:52:00,68.0,67.0,29.95,NW,324,0.0,5.0,98,0.00,,,1.40,,2013-06-18 11:52:00,
2013-06-18 07:01:00,67.0,66.0,29.96,NNW,336,0.0,4.0,98,0.00,,,1.40,,2013-06-18 12:01:00,
2013-06-18 07:11:00,67.0,66.0,29.96,NNW,336,0.0,4.0,98,0.00,,,1.40,,2013-06-18 12:11:00,
2013-06-18 07:22:00,67.0,66.0,29.96,NNW,340,0.0,4.0,98,0.00,,,1.40,,2013-06-18 12:22:00,
2013-06-18 07:33:00,67.0,66.0,29.97,WNW,297,4.0,5.0,98,0.00,,,1.40,,2013-06-18 12:33:00,
2013-06-18 07:43:00,68.0,67.0,29.98,NW,318,0.0,3.0,98,0.00,,,1.40,,2013-06-18 12:43:00,
2013-06-18 07:52:00,68.0,67.0,29.98,NW,318,0.0,3.0,98,0.00,,,1.40,,2013-06-18 12:52:00,
2013-06-18 08:02:00,68.0,67.0,29.98,NW,318,0.0,3.0,98,0.00,,,1.40,,2013-06-18 13:02:00,
2013-06-18 08:12:00,68.0,67.0,29.98,NW,318,0.0,3.0,98,0.00,,,1.40,,2013-06-18 13:12:00,
2013-06-18 08:22:00,68.0,67.0,29.98,NW,318,0.0,3.0,98,0.00,,,1.40,,2013-06-18 13:22:00,
2013-06-18 08:34:00,68.0,67.0,29.98,NNW,330,0.0,5.0,98,0.00,,,1.40,,2013-06-18 13:34:00,
2013-06-18 08:43:00,68.0,67.0,29.98,NNW,330,0.0,5.0,98,0.00,,,1.40,,2013-06-18 13:43:00,
2013-06-18 08:53:00,68.0,67.0,29.98,NNW,330,0.0,5.0,98,0.00,,,1.40,,2013-06-18 13:53:00,
2013-06-18 09:02:00,68.0,67.0,29.98,NNW,330,0.0,5.0,98,0.00,,,1.40,,2013-06-18 14:02:00,
2013-06-18 09:11:00,69.0,68.0,30.00,North,350,0.0,5.0,98,0.00,,,1.40,,2013-06-18 14:11:00,
2013-06-18 09:22:00,69.0,68.0,30.01,NNW,342,2.0,5.0,98,0.00,,,1.40,,2013-06-18 14:22:00,
2013-06-18 09:33:00,69.0,68.0,30.01,NNW,342,2.0,5.0,98,0.00,,,1.40,,2013-06-18 14:33:00,
2013-06-18 09:43:00,69.0,68.0,30.01,NNW,346,2.0,5.0,98,0.00,,,1.40,,2013-06-18 14:43:00,
2013-06-18 09:53:00,68.0,67.0,30.01,NNW,347,6.0,6.0,98,0.00,,,1.40,,2013-06-18 14:53:00,
2013-06-18 10:02:00,68.0,67.0,30.01,NNW,347,6.0,6.0,98,0.00,,,1.40,,2013-06-18 15:02:00,
2013-06-18 10:11:00,68.0,67.0,30.01,NNE,22,12.0,12.0,98,0.00,,,1.40,,2013-06-18 15:11:00,
2013-06-18 10:22:00,68.0,67.0,30.01,NNW,348,4.0,9.0,98,0.00,,,1.40,,2013-06-18 15:22:00,
2013-06-18 10:33:00,68.0,67.0,30.01,NNW,347,10.0,10.0,98,0.00,,,1.40,,2013-06-18 15:33:00,
2013-06-18 10:43:00,68.0,67.0,30.01,NW,314,14.0,14.0,97,0.00,,,1.40,,2013-06-18 15:43:00,
2013-06-18 10:53:00,69.0,68.0,30.01,North,355,0.0,8.0,98,0.00,,,1.40,,2013-06-18 15:53:00,
2013-06-18 11:01:00,69.0,68.0,30.01,NNE,17,14.0,14.0,97,0.00,,,1.40,,2013-06-18 16:01:00,
2013-06-18 11:11:00,69.0,68.0,30.02,ENE,77,2.0,9.0,96,0.00,,,1.40,,2013-06-18 16:11:00,
2013-06-18 11:22:00,69.0,68.0,30.02,ENE,77,2.0,9.0,96,0.00,,,1.40,,2013-06-18 16:22:00,
2013-06-18 11:33:00,70.0,68.0,30.02,ENE,77,6.0,8.0,95,0.00,,,1.40,,2013-06-18 16:33:00,
2013-06-18 11:43:00,70.0,68.0,30.02,NE,53,12.0,12.0,93,0.00,,,1.40,,2013-06-18 16:43:00,
2013-06-18 11:53:00,71.0,68.0,30.02,NNE,33,0.0,6.0,91,0.00,,,1.40,,2013-06-18 16:53:00,
2013-06-18 12:02:00,71.0,68.0,30.02,NNE,33,0.0,6.0,91,0.00,,,1.40,,2013-06-18 17:02:00,
2013-06-18 12:12:00,72.0,68.0,30.02,ENE,78,4.0,6.0,87,0.00,,,1.40,,2013-06-18 17:12:00,
2013-06-18 12:22:00,72.0,69.0,30.03,North,5,0.0,2.0,89,0.00,,,1.40,,2013-06-18 17:22:00,
2013-06-18 12:33:00,73.0,69.0,30.03,NW,316,0.0,3.0,88,0.00,,,1.40,,2013-06-18 17:33:00,
2013-06-18 12:43:00,73.0,69.0,30.03,West,273,4.0,4.0,88,0.00,,,1.40,,2013-06-18 17:43:00,
2013-06-18 12:53:00,74.0,70.0,30.03,NW,322,6.0,6.0,86,0.00,,,1.39,,2013-06-18 17:53:00,
2013-06-18 13:02:00,75.0,70.0,30.03,NE,52,0.0,4.0,84,0.00,,,1.39,,2013-06-18 18:02:00,
2013-06-18 13:11:00,76.0,71.0,30.03,WSW,254,2.0,6.0,84,0.00,,,1.37,,2013-06-18 18:11:00,
2013-06-18 13:22:00,77.0,71.0,30.03,WNW,303,0.0,4.0,81,0.00,,,1.37,,2013-06-18 18:22:00,
2013-06-18 13:33:00,77.0,71.0,30.03,WNW,303,0.0,4.0,81,0.00,,,1.37,,2013-06-18 18:33:00,
2013-06-18 13:42:00,78.0,70.0,30.03,North,355,8.0,8.0,77,0.00,,,1.37,,2013-06-18 18:42:00,
2013-06-18 13:53:00,78.0,70.0,30.03,North,355,8.0,8.0,77,0.00,,,1.37,,2013-06-18 18:53:00,
2013-06-18 14:02:00,78.0,69.0,30.02,ENE,67,4.0,7.0,74,0.00,,,1.37,,2013-06-18 19:02:00,
2013-06-18 14:12:00,79.0,69.0,30.03,NE,53,12.0,12.0,72,0.00,,,1.37,,2013-06-18 19:12:00,
2013-06-18 14:22:00,79.0,69.0,30.03,NE,53,12.0,12.0,72,0.00,,,1.37,,2013-06-18 19:22:00,
2013-06-18 14:33:00,79.0,69.0,30.03,NE,53,12.0,12.0,72,0.00,,,1.37,,2013-06-18 19:33:00,
2013-06-18 14:43:00,79.0,69.0,30.03,NE,53,12.0,12.0,72,0.00,,,1.37,,2013-06-18 19:43:00,
2013-06-18 14:52:00,81.0,69.0,30.02,North,350,4.0,5.0,66,0.00,,,1.37,,2013-06-18 19:52:00,
2013-06-18 15:02:00,81.0,69.0,30.02,North,350,4.0,5.0,66,0.00,,,1.37,,2013-06-18 20:02:00,
2013-06-18 15:11:00,81.0,69.0,30.02,North,350,4.0,5.0,66,0.00,,,1.37,,2013-06-18 20:11:00,
2013-06-18 15:23:00,81.0,69.0,30.02,North,350,4.0,5.0,66,0.00,,,1.37,,2013-06-18 20:23:00,
2013-06-18 15:33:00,81.0,69.0,30.01,East,96,0.0,5.0,68,0.00,,,1.37,,2013-06-18 20:33:00,
2013-06-18 15:43:00,81.0,68.0,30.00,ENE,62,4.0,5.0,65,0.00,,,1.37,,2013-06-18 20:43:00,
2013-06-18 15:52:00,82.0,69.0,30.00,East,92,0.0,7.0,66,0.00,,,1.37,,2013-06-18 20:52:00,
2013-06-18 16:02:00,82.0,69.0,30.00,East,92,0.0,7.0,66,0.00,,,1.37,,2013-06-18 21:02:00,
2013-06-18 16:11:00,82.0,69.0,30.00,East,92,0.0,7.0,66,0.00,,,1.37,,2013-06-18 21:11:00,
2013-06-18 16:23:00,82.0,69.0,29.99,SE,129,0.0,4.0,66,0.00,,,1.37,,2013-06-18 21:23:00,
2013-06-18 16:33:00,82.0,69.0,29.99,North,355,0.0,8.0,64,0.00,,,1.37,,2013-06-18 21:33:00,
2013-06-18 16:43:00,81.0,68.0,29.99,NW,322,0.0,4.0,64,0.00,,,1.37,,2013-06-18 21:43:00,
2013-06-18 16:52:00,81.0,68.0,29.99,NW,322,0.0,4.0,64,0.00,,,1.37,,2013-06-18 21:52:00,
2013-06-18 17:01:00,81.0,68.0,29.99,NW,322,0.0,4.0,64,0.00,,,1.37,,2013-06-18 22:01:00,
2013-06-18 17:11:00,81.0,68.0,29.99,NW,322,0.0,4.0,64,0.00,,,1.37,,2013-06-18 22:11:00,
2013-06-18 17:22:00,82.0,69.0,29.99,ENE,63,0.0,5.0,65,0.00,,,1.37,,2013-06-18 22:22:00,
2013-06-18 17:34:00,83.0,69.0,29.98,ENE,66,0.0,4.0,62,0.00,,,1.37,,2013-06-18 22:34:00,
2013-06-18 17:43:00,83.0,69.0,29.98,ENE,66,0.0,4.0,62,0.00,,,1.37,,2013-06-18 22:43:00,
2013-06-18 17:53:00,83.0,69.0,29.98,NW,323,0.0,4.0,63,0.00,,,1.37,,2013-06-18 22:53:00,
2013-06-18 18:02:00,83.0,69.0,29.98,NW,323,0.0,4.0,63,0.00,,,1.37,,2013-06-18 23:02:00,
2013-06-18 18:11:00,82.0,69.0,29.97,NNE,13,0.0,3.0,64,0.00,,,1.37,,2013-06-18 23:11:00,
2013-06-18 18:23:00,82.0,69.0,29.98,North,5,0.0,3.0,65,0.00,,,1.37,,2013-06-18 23:23:00,
2013-06-18 18:36:00,82.0,69.0,29.98,North,11,0.0,3.0,66,0.00,,,1.37,,2013-06-18 23:36:00,
2013-06-18 18:48:00,81.0,69.0,29.98,North,360,0.0,1.0,67,0.00,,,1.37,,2013-06-18 23:48:00,
2013-06-18 19:01:00,81.0,70.0,29.98,North,360,0.0,1.0,70,0.00,,,1.37,,2013-06-19 00:01:00,
2013-06-18 19:11:00,80.0,70.0,29.98,North,360,0.0,1.0,71,0.00,,,1.37,,2013-06-19 00:11:00,
2013-06-18 19:22:00,80.0,70.0,29.98,North,360,0.0,1.0,71,0.00,,,1.37,,2013-06-19 00:22:00,
2013-06-18 19:33:00,79.0,70.0,29.98,North,360,0.0,0.0,73,0.00,,,1.37,,2013-06-19 00:33:00,
2013-06-18 19:43:00,79.0,70.0,29.98,North,360,0.0,0.0,73,0.00,,,1.37,,2013-06-19 00:43:00,
2013-06-18 19:53:00,79.0,70.0,29.98,North,360,0.0,0.0,73,0.00,,,1.37,,2013-06-19 00:53:00,
2013-06-18 20:01:00,78.0,70.0,29.98,North,360,0.0,0.0,76,0.00,,,1.37,,2013-06-19 01:01:00,
2013-06-18 20:11:00,78.0,71.0,29.98,North,360,0.0,0.0,78,0.00,,,1.16,,2013-06-19 01:11:00,
2013-06-18 20:22:00,78.0,71.0,29.98,North,360,0.0,0.0,78,0.00,,,1.16,,2013-06-19 01:22:00,
2013-06-18 20:32:00,78.0,71.0,29.99,North,360,0.0,0.0,79,0.00,,,0.92,,2013-06-19 01:32:00,
2013-06-18 20:42:00,78.0,71.0,29.99,North,360,0.0,0.0,79,0.00,,,0.92,,2013-06-19 01:42:00,
2013-06-18 20:53:00,77.0,70.0,29.99,North,360,0.0,0.0,80,0.00,,,0.26,,2013-06-19 01:53:00,
2013-06-18 21:01:00,77.0,70.0,29.99,North,360,0.0,0.0,80,0.00,,,0.26,,2013-06-19 02:01:00,
2013-06-18 21:11:00,77.0,70.0,29.99,North,360,0.0,0.0,80,0.00,,,0.26,,2013-06-19 02:11:00,
2013-06-18 21:21:00,77.0,70.0,29.99,North,360,0.0,0.0,80,0.00,,,0.26,,2013-06-19 02:21:00,
2013-06-18 21:32:00,77.0,70.0,29.99,North,360,0.0,0.0,80,0.00,,,0.26,,2013-06-19 02:32:00,
2013-06-18 21:42:00,74.0,69.0,30.00,North,360,0.0,0.0,84,0.00,,,0.11,,2013-06-19 02:42:00,
2013-06-18 21:52:00,74.0,69.0,30.00,North,360,0.0,0.0,84,0.00,,,0.11,,2013-06-19 02:52:00,
2013-06-18 22:01:00,73.0,68.0,30.00,North,360,0.0,0.0,85,0.00,,,0.03,,2013-06-19 03:01:00,
2013-06-18 22:11:00,73.0,68.0,30.00,North,360,0.0,0.0,85,0.00,,,0.03,,2013-06-19 03:11:00,
2013-06-18 22:22:00,73.0,68.0,30.00,North,360,0.0,0.0,85,0.00,,,0.03,,2013-06-19 03:22:00,
2013-06-18 22:33:00,73.0,68.0,30.00,North,360,0.0,0.0,85,0.00,,,0.03,,2013-06-19 03:33:00,
2013-06-18 22:42:00,73.0,68.0,30.00,North,360,0.0,0.0,85,0.00,,,0.03,,2013-06-19 03:42:00,
2013-06-18 23:01:00,71.0,68.0,30.00,North,360,0.0,0.0,89,0.00,,,0.03,,2013-06-19 04:01:00,
2013-06-18 23:11:00,71.0,68.0,30.01,North,360,0.0,0.0,89,0.00,,,0.03,,2013-06-19 04:11:00,
2013-06-18 23:22:00,71.0,68.0,30.01,North,360,0.0,0.0,89,0.00,,,0.03,,2013-06-19 04:22:00,
2013-06-18 23:32:00,71.0,68.0,30.01,North,360,0.0,0.0,89,0.00,,,0.03,,2013-06-19 04:32:00,
2013-06-18 23:42:00,71.0,68.0,30.01,North,360,0.0,0.0,89,0.00,,,0.03,,2013-06-19 04:42:00,
2013-06-18 23:53:00,71.0,68.0,30.01,North,360,0.0,0.0,89,0.00,,,0.03,,2013-06-19 04:53:00,